This is the latest recevied weather packets stored in our database for station/object VU2EXP-13. If no packets are shown the sender has not sent any weather packets the latest 10 day(s).
| Time | Temp. | Humidity | Pressure | Rain* | Wind** | Luminosity | Snow |
|---|---|---|---|---|---|---|---|
| 1788156927 | 32.78° C | 53% | 992.1 hPa | - | - | - | - |
| 1788156028 | 31.11° C | 55% | 992.2 hPa | - | - | - | - |
| 1788155127 | 31.67° C | 54% | 992.2 hPa | - | - | - | - |
| 1788154227 | 31.67° C | 56% | 992.3 hPa | - | - | - | - |
| 1788153328 | 31.11° C | 55% | 992.3 hPa | - | - | - | - |
| 1788152428 | 31.67° C | 56% | 992.4 hPa | - | - | - | - |
| 1788151527 | 31.11° C | 58% | 992.4 hPa | - | - | - | - |
| 1788150627 | 30.56° C | 60% | 992.5 hPa | - | - | - | - |
| 1788149727 | 30° C | 62% | 992.6 hPa | - | - | - | - |
| 1788148833 | 30° C | 62% | 992.5 hPa | - | - | - | - |
| 1788147926 | 29.44° C | 64% | 992.4 hPa | - | - | - | - |
| 1788147027 | 29.44° C | 65% | 992.5 hPa | - | - | - | - |
| 1788146127 | 29.44° C | 65% | 992.4 hPa | - | - | - | - |
| 1788145226 | 28.89° C | 67% | 992.3 hPa | - | - | - | - |
| 1788144326 | 28.33° C | 68% | 992.3 hPa | - | - | - | - |
| 1788143426 | 28.33° C | 69% | 992.2 hPa | - | - | - | - |
| 1788142526 | 28.33° C | 70% | 992.1 hPa | - | - | - | - |
| 1788141626 | 28.33° C | 71% | 992.1 hPa | - | - | - | - |
| 1788140725 | 27.78° C | 71% | 992 hPa | - | - | - | - |
| 1788139825 | 27.78° C | 72% | 991.8 hPa | - | - | - | - |
| 1788138925 | 27.78° C | 72% | 991.7 hPa | - | - | - | - |
| 1788138025 | 27.78° C | 72% | 991.6 hPa | - | - | - | - |
| 1788137125 | 27.78° C | 72% | 991.4 hPa | - | - | - | - |
| 1788136225 | 27.78° C | 71% | 991.5 hPa | - | - | - | - |
| 1788135325 | 27.78° C | 71% | 991.3 hPa | - | - | - | - |
* Rain since midnight (hover to see other rain measurements)
** Current wind speed in m/s (hover to see current wind gust speed)